Overview Statistics Trail Chart Weather Telemetry Raw packets
 

This is the latest recevied weather packets stored in our database for station/object JH7MHZ-13. If no packets are shown the sender has not sent any weather packets the latest 10 day(s).

<< 1 2 3 4 >>
Time Temp. Humidity Pressure Rain* Wind** Luminosity Snow
1788685247 22.22° C 69% 999.6 hPa 0 mm - - -
1788681642 22.22° C 74% 999.6 hPa 0 mm - - -
1788678031 24.44° C 64% 999.3 hPa 0 mm - - -
1788674430 25° C 62% 999.3 hPa 0 mm - - -
1788670830 25.56° C 61% 999.7 hPa 0 mm - - -
1788667245 25.56° C 60% 1000.1 hPa 0 mm - - -
1788663628 24.44° C 61% 1000.7 hPa 0 mm - - -
1788656427 22.22° C 74% 1002.6 hPa 0 mm - - -
1788652827 20° C 75% 1002.4 hPa 0 mm - - -
1788649226 18.33° C 82% 1002.6 hPa 0 mm - - -
1788645626 15° C 93% 1002.4 hPa 0 mm - - -
1788642025 12.22° C 98% 1002.3 hPa 0 mm - - -
1788638424 11.67° C 97% 1001.9 hPa 0 mm - - -
1788634824 12.22° C 98% 1001.9 hPa 0 mm - - -
1788631223 12.78° C 97% 1002.1 hPa 0 mm - - -
1788627623 12.78° C 97% 1001.9 hPa 0 mm - - -
1788624022 13.33° C 97% 1001.7 hPa 0 mm - - -
1788620422 13.89° C 96% 1001.8 hPa 0 mm - - -
1788616821 14.44° C 96% 1001.7 hPa 0 mm - - -
1788613221 15° C 96% 1001.8 hPa 0 mm - - -
1788609620 16.11° C 94% 1001.6 hPa 0 mm - - -
1788606019 17.22° C 92% 1001.3 hPa 0 mm - - -
1788602419 18.89° C 86% 1000.4 hPa 0 mm - - -
1788598818 21.11° C 78% 999.3 hPa 0 mm - - -
1788595218 22.78° C 73% 998.4 hPa 0 mm - - -

* Rain latest hour (hover to see other rain measurements)
** Current wind speed in m/s (hover to see current wind gust speed)